Location: Unspecified
(0.0000°N, 0.0000°E)
Time: 04:50:16
(UTC+00:00)

deb Centaur AC-2 - Pass Details

Date: 14 August 2024
Orbit: 582 x 982 km, 29.9° (Epoch: 09 September)

Event Time Altitude Azimuth Distance (km) Brightness Sun altitude
Exits shadow 04:41:40 - 314° (NW) 2,761 ? -20.1°
Reaches altitude 10° 04:42:05 10° 317° (NW) 2,713 ? -20.0°
Maximum altitude 04:43:59 11° 334° (NNW) 2,601 ? -19.5°
Drops below altitude 10° 04:45:52 10° 351° (N) 2,669 ? -19.1°
Sets 04:50:47 0° 24° (NNE) 3,528 ? -17.9°
